CZ-3C DEB, 40201

Orbit data source: Space-Track

CZ-3C DEB, 40201 is space debris in HEO originally from a launch on Fri, 24 Feb 2012 UTC launched from the Xichang Space Center, China (XSC). Debris objects in space refer to the collection of defunct objects orbiting the Earth. Examples of debris include non-operational satellites, rocket bodies, and fragments generated from explosions, collisions, or faulty payload assembly.

Loading next visibility...
Identifier
40201, 2012-008L
Orbit
HEO
Country
Flag of CNCN / PRC
Related business
Manufacturer
CALT
Mission
Spacecraft
Bus & Motor
Unknown
Mass
Unknown
Launch date (UTC)
2012-02-24 (14 years ago)
Launch vehicle
Unknown
Launch site
Xichang Space Center, China (XSC)
Object type
Payload
Rocket body
Debris
Shape & HBR
Unknown shape, 0.3 m
Radar Cross Section
Medium (>0.1 m² and <1 m²)

Expand to show TLE details & history
Last TLE update: 10 hours ago

TLE from 10 hours ago
0 CZ-3C DEB
1 40201U 12008L   26178.01729825  .00000104  00000-0  12712-1 0  9995
2 40201  21.3694  73.4370 7074509  83.6801 345.5459  2.24728138103417
Epoch: 2026-06-27T00:24Z
TLE epoch observation values (Epoch: 2026-06-27T00:24:54.568Z)
Latitude
0.00002°
Longitude
152.04189°
Altitude
5,039.099 km
Speed
7.323 km/s
True Right ascension
04h 53m 37s
True Declination
0° 00' 00"
Sunlit
Object was in daylight at epoch
Visualization orbit readout
Latitude
Unknown
Longitude
Unknown
Altitude
Unknown
Speed
Unknown
Apparent Right ascension
Unknown
Apparent Declination
Unknown
Sunlit
N/A
Visualization observer readout
Local Sidereal Time
21:33:09
Azimuth
Unknown
Elevation
Unknown
Doppler factor
Unknown
Orbital elements
Apogee altitude
35,667.113 km
Perigee altitude
825.76 km
Semi-major axis
24,624.574 km
Eccentricity
0.70745
Inclination
21.3694°
RAAN
73.437°
Arg. of periapsis
83.6801°
True anomaly
275.66768°
Mean anomaly
345.5459°
Eccentric anomaly
318.89975°
Mean motion
0.56168 °/min
Orbital period
640.93 mins
BSTAR
0.012712
Loading maneuver chart data...
Computing Atmospheric mass density...
Loading historical data...
Loading historical data...
Loading historical data...
Loading historical data...
Loading historical data...
Loading historical data...
Loading historical data...

Documentation

Showing up to 5 results
|